Home   Weather   Salvador   Past weeks
Flag for Brazil

Past Weather in Salvador, Bahia, Brazil — Yesterday and Last 2 Weeks

Now
88 °F

Passing clouds.


Feels Like: 98 °F
Forecast: 86 / 82 °F
Wind: 10 mph from East

Location: Salvador Aeroporto

Current Time: Apr 24, 2019 at 3:01:58 pm

Latest Report: Apr 24, 2019 at 2:00 pm


Visibility: N/A

Pressure: 29.95 "Hg

Humidity: 66%

Dew Point: 75 °F

Location of SalvadorLocation

Past Weather in Salvador — Graph

°F

Salvador Temperature Yesterday

Maximum temperature yesterday: 86 °F (at 11:00 am)
Minimum temperature yesterday: 41 °F (at 1:00 am)
Average temperature yesterday: 81 °F

High & Low Weather Summary for the Past Weeks

 TemperatureHumidityPressure
High95 °F (Apr 18, 3:00 am)100% (Apr 23, 1:00 am)30.04 "Hg (Apr 23, 1:00 am)
Low41 °F (Apr 23, 1:00 am)53% (Apr 18, 3:00 am)29.80 "Hg (Apr 18, 3:00 pm)
Average82 °F79%29.91 "Hg
* Reported Apr 9 2:00 pm — Apr 24 2:00 pm, Salvador. Weather by CustomWeather, © 2019

Note: Actual official high and low records may vary slightly from our data, if they occured in-between our weather recording intervals... More about our weather records

Advertising

Salvador Weather History for the Previous 24 Hours

Scroll right to see more
 ConditionsComfort  
Time TempWeatherWind HumidityBarometerVisibility
2:00 pm
Wed, Apr 24
88 °FPassing clouds.10 mph66%29.95 "HgN/A
1:00 pm86 °FPassing clouds.12 mph66%29.98 "HgN/A
12:00 pm86 °FPassing clouds.13 mph70%29.98 "HgN/A
11:00 am86 °FScattered clouds.12 mph66%30.01 "HgN/A
10:00 am86 °FScattered clouds.13 mph70%30.04 "HgN/A
9:00 am84 °FScattered clouds.9 mph70%30.01 "HgN/A
8:00 am82 °FScattered clouds.7 mph79%30.01 "HgN/A
7:00 am81 °FScattered clouds.9 mph84%29.98 "HgN/A
6:00 am77 °FScattered showers. Partly sunny.1 mph89%29.98 "HgN/A
5:00 am77 °FScattered showers. Passing clouds.5 mph89%29.98 "HgN/A
4:00 am79 °FScattered showers. Passing clouds.7 mph84%29.95 "HgN/A
3:00 am81 °FPassing clouds.6 mph79%29.95 "HgN/A
2:00 am82 °FPassing clouds.7 mph74%29.95 "HgN/A
1:00 am82 °FPassing clouds.7 mph74%29.98 "HgN/A
12:00 am82 °FPassing clouds.10 mph74%29.98 "HgN/A
11:00 pm
Tue, Apr 23
84 °FPassing clouds.12 mph70%30.01 "HgN/A
10:00 pm82 °FPassing clouds.12 mph70%29.98 "HgN/A
9:00 pm82 °FPassing clouds.12 mph70%29.98 "HgN/A
8:00 pm84 °FPassing clouds.10 mph66%29.98 "HgN/A
7:00 pm84 °FPassing clouds.10 mph66%29.95 "HgN/A
6:00 pm84 °FPassing clouds.10 mph66%29.95 "HgN/A
5:00 pm84 °FPassing clouds.9 mph66%29.95 "HgN/A
4:00 pm86 °FPassing clouds.10 mph62%29.95 "HgN/A
3:00 pm86 °FScattered clouds.10 mph70%29.92 "HgN/A
Weather by CustomWeather, © 2019

See weather overview